Weather History for Hurlburt Field, FL

Change the Weather History Date:

Saturday, January 12, 2013

  Actual Average Record
Temperature  
Mean Temperature 68 °F -  
Max Temperature 72 °F 59 °F 73 °F (2000)
Min Temperature 65 °F 40 °F 4 °F (2008)
Cooling Degree Days 4    
Growing Degree Days 18 (Base 50)    
Moisture  
Dew Point 67 °F    
Average Humidity 100    
Maximum Humidity 100    
Minimum Humidity 100    
Precipitation  
Precipitation 0.00 in - - ()
Sea Level Pressure  
Sea Level Pressure 30.08 in    
Wind  
Wind Speed 9 mph (SE)    
Max Wind Speed 13 mph    
Max Gust Speed -    
Visibility 5 miles    
Events Fog    
Averages and records for this station are not official NWS values.
T = Trace of Precipitation, MM = Missing Value Source: NWS Daily Summary

Daily Weather History Graph

Daily Weather History Graph

Search for Another Location

Airport:

Trip Planner

Search our weather history database for the weather conditions in past years. The results will help you decide how hot, cold, wet, or windy it might be!

Date:

Astronomy

Jan. 12, 2013 Rise Set
Actual Time 6:44 AM CST 5:06 PM CST
Civil Twilight 6:18 AM CST 5:32 PM CST
Nautical Twilight 5:48 AM CST 6:01 PM CST
Astronomical Twilight 5:19 AM CST 6:30 PM CST
Moon 7:09 AM CST (1/12) 6:25 PM CST (1/12)
Length of Visible Light 11h 13m
Length of Day
10h 21m
New Moon, 1% of the Moon is Illuminated
Jan 12
New Moon
Jan 18
First Quarter
Jan 26
Full
Feb 3
Last Quarter
Feb 10
New

Hourly Weather History & Observations

Time (CST) Temp. Dew Point Humidity Pressure Visibility Wind Dir Wind Speed Gust Speed Precip Events Conditions
12:55 AM 66.9 °F 66.9 °F 100% 30.12 in 4.0 mi ESE 9.2 mph - N/A   Overcast
1:04 AM 66.2 °F 66.2 °F 100% 30.12 in 5.0 mi SE 9.2 mph - N/A   Mostly Cloudy
1:16 AM 66.2 °F 66.2 °F 100% 30.12 in 5.0 mi ESE 9.2 mph - N/A   Scattered Clouds
1:21 AM 66.2 °F 66.2 °F 100% 30.12 in 5.0 mi ESE 9.2 mph - N/A   Mostly Cloudy
1:24 AM 66.2 °F 66.2 °F 100% 30.12 in 5.0 mi ESE 8.1 mph - N/A   Scattered Clouds
1:25 AM 66.2 °F 66.2 °F 100% 30.12 in 5.0 mi ESE 8.1 mph - N/A   Mostly Cloudy
1:34 AM 66.2 °F 66.2 °F 100% 30.12 in 2.5 mi ESE 8.1 mph - N/A   Mostly Cloudy
1:43 AM 66.2 °F 66.2 °F 100% 30.12 in 2.5 mi SE 8.1 mph - N/A   Scattered Clouds
1:54 AM 66.2 °F 66.2 °F 100% 30.12 in 1.8 mi ESE 6.9 mph - N/A   Scattered Clouds
1:55 AM 66.6 °F 66.6 °F 100% 30.12 in 1.8 mi ESE 6.9 mph - N/A   Scattered Clouds
2:00 AM 66.2 °F 66.2 °F 100% 30.12 in 1.5 mi ESE 8.1 mph - N/A   Partly Cloudy
2:13 AM 66.2 °F 66.2 °F 100% 30.12 in 1.8 mi ESE 6.9 mph - N/A   Partly Cloudy
2:16 AM 66.2 °F 66.2 °F 100% 30.12 in 2.0 mi ESE 5.8 mph - N/A   Partly Cloudy
2:23 AM 66.2 °F 66.2 °F 100% 30.12 in 2.0 mi ESE 6.9 mph - N/A   Mostly Cloudy
2:35 AM 66.2 °F 66.2 °F 100% 30.12 in 3.0 mi ESE 9.2 mph - N/A   Mostly Cloudy
2:39 AM 66.2 °F 66.2 °F 100% 30.11 in 2.5 mi ESE 9.2 mph - N/A   Mostly Cloudy
2:43 AM 66.2 °F 66.2 °F 100% 30.11 in 1.8 mi ESE 9.2 mph - N/A   Mostly Cloudy
2:45 AM 66.2 °F 66.2 °F 100% 30.11 in 1.5 mi ESE 8.1 mph - N/A   Mostly Cloudy
2:46 AM 66.2 °F 66.2 °F 100% 30.11 in 1.2 mi ESE 8.1 mph - N/A   Mostly Cloudy
2:48 AM 66.2 °F 66.2 °F 100% 30.11 in 1.0 mi ESE 9.2 mph - N/A   Mist
2:55 AM 66.6 °F 66.6 °F 100% 30.10 in 1.0 mi ESE 9.2 mph - N/A   Mist
2:59 AM 66.2 °F 66.2 °F 100% 30.10 in 1.2 mi ESE 8.1 mph - N/A   Overcast
3:05 AM 66.2 °F 66.2 °F 100% 30.10 in 1.0 mi ESE 8.1 mph - N/A   Mist
3:21 AM 66.2 °F 66.2 °F 100% 30.10 in 0.8 mi ESE 10.4 mph - N/A   Mist
3:24 AM 66.2 °F 66.2 °F 100% 30.10 in 0.8 mi ESE 9.2 mph - N/A   Mist
3:27 AM 66.2 °F 66.2 °F 100% 30.10 in 0.8 mi SE 9.2 mph - N/A   Mist
3:28 AM 66.2 °F 66.2 °F 100% 30.10 in 0.8 mi ESE 10.4 mph - N/A   Mist
3:35 AM 66.2 °F 66.2 °F 100% 30.09 in 0.8 mi ESE 9.2 mph - N/A   Mist
3:36 AM 66.2 °F 66.2 °F 100% 30.09 in 1.0 mi ESE 10.4 mph - N/A   Mist
3:54 AM 66.2 °F 66.2 °F 100% 30.09 in 1.2 mi ESE 9.2 mph - N/A   Overcast
3:55 AM 66.2 °F 66.2 °F 100% 30.09 in 1.2 mi ESE 9.2 mph - N/A   Overcast
4:01 AM 66.2 °F 66.2 °F 100% 30.08 in 1.0 mi SE 10.4 mph - N/A   Mist
4:07 AM 66.2 °F 66.2 °F 100% 30.08 in 1.2 mi ESE 9.2 mph - N/A   Overcast
4:18 AM 66.2 °F 66.2 °F 100% 30.09 in 1.0 mi SE 9.2 mph - N/A   Mist
4:22 AM 66.2 °F 66.2 °F 100% 30.08 in 0.8 mi ESE 10.4 mph - N/A   Mist
4:25 AM 66.2 °F 66.2 °F 100% 30.08 in 0.8 mi SE 8.1 mph - N/A   Mist
4:27 AM 66.2 °F 66.2 °F 100% 30.08 in 0.8 mi SE 9.2 mph - N/A   Mist
4:31 AM 66.2 °F 66.2 °F 100% 30.08 in 0.5 mi SE 10.4 mph - N/A Fog Fog
4:37 AM 66.2 °F 66.2 °F 100% 30.09 in 0.5 mi SE 9.2 mph - N/A Fog Fog
4:47 AM 66.2 °F 66.2 °F 100% 30.09 in 0.5 mi SE 9.2 mph - N/A Fog Fog
4:52 AM 66.2 °F 66.2 °F 100% 30.09 in 0.8 mi SE 8.1 mph - N/A   Mist
4:54 AM 66.2 °F 66.2 °F 100% 30.09 in 0.8 mi SE 8.1 mph - N/A   Mist
4:55 AM 65.8 °F 65.8 °F 100% 30.09 in 0.8 mi ESE 8.1 mph - N/A   Mist
5:05 AM 66.2 °F 66.2 °F 100% 30.09 in 0.8 mi ESE 6.9 mph - N/A   Mist
5:06 AM 66.2 °F 66.2 °F 100% 30.09 in 1.0 mi ESE 6.9 mph - N/A   Mist
5:16 AM 66.2 °F 66.2 °F 100% 30.09 in 0.8 mi ESE 5.8 mph - N/A   Mist
5:17 AM 66.2 °F 66.2 °F 100% 30.09 in 0.8 mi ESE 4.6 mph - N/A   Mist
5:33 AM 66.2 °F 66.2 °F 100% 30.09 in 0.5 mi ESE 5.8 mph - N/A Fog Fog
5:34 AM 66.2 °F 66.2 °F 100% 30.09 in 0.5 mi ESE 5.8 mph - N/A Fog Fog
5:37 AM 66.2 °F 66.2 °F 100% 30.09 in 0.5 mi ESE 6.9 mph - N/A Fog Fog
5:39 AM 66.2 °F 66.2 °F 100% 30.09 in 0.5 mi ESE 6.9 mph - N/A Fog Fog
5:43 AM 66.2 °F 66.2 °F 100% 30.09 in 0.8 mi ESE 5.8 mph - N/A   Mist
5:44 AM 66.2 °F 66.2 °F 100% 30.09 in 0.8 mi ESE 5.8 mph - N/A   Mist
5:55 AM 65.7 °F 65.7 °F 100% 30.10 in 0.8 mi ESE 10.4 mph - N/A   Mist
6:02 AM 66.2 °F 66.2 °F 100% 30.11 in 0.8 mi ESE 9.2 mph - N/A   Mist
6:03 AM 66.2 °F 66.2 °F 100% 30.11 in 1.0 mi SE 11.5 mph - N/A   Mist
6:08 AM 66.2 °F 66.2 °F 100% 30.11 in 1.2 mi ESE 6.9 mph - N/A   Overcast
6:09 AM 66.2 °F 66.2 °F 100% 30.11 in 1.5 mi SE 9.2 mph - N/A   Overcast
6:11 AM 66.2 °F 66.2 °F 100% 30.11 in 1.8 mi ESE 10.4 mph - N/A   Overcast
6:12 AM 66.2 °F 66.2 °F 100% 30.11 in 2.0 mi ESE 11.5 mph - N/A   Overcast
6:14 AM 66.2 °F 66.2 °F 100% 30.11 in 3.0 mi ESE 11.5 mph - N/A   Overcast
6:21 AM 66.2 °F 66.2 °F 100% 30.11 in 6.0 mi SE 10.4 mph - N/A   Mostly Cloudy
6:34 AM 66.2 °F 66.2 °F 100% 30.11 in 10.0 mi SE 8.1 mph - N/A   Mostly Cloudy
6:42 AM 66.2 °F 66.2 °F 100% 30.10 in 10.0 mi SE 11.5 mph - N/A   Scattered Clouds
6:55 AM 66.2 °F 66.2 °F 100% 30.10 in 10.0 mi SE 9.2 mph - N/A   Scattered Clouds
7:15 AM 66.2 °F 66.2 °F 100% 30.11 in 10.0 mi SE 6.9 mph - N/A   Partly Cloudy
7:55 AM 67.5 °F 67.5 °F 100% 30.13 in 10.0 mi ESE 8.1 mph - N/A   Clear
7:56 AM 68.0 °F 68.0 °F 100% 30.13 in 10.0 mi SE 9.2 mph - N/A   Partly Cloudy
8:05 AM 68.0 °F 68.0 °F 100% 30.13 in 10.0 mi ESE 9.2 mph - N/A   Mostly Cloudy
8:17 AM 68.0 °F 68.0 °F 100% 30.13 in 10.0 mi ESE 9.2 mph - N/A   Mostly Cloudy
8:55 AM 68.0 °F 68.0 °F 100% 30.14 in 10.0 mi ESE 10.4 mph - N/A   Mostly Cloudy
9:06 AM 68.0 °F 68.0 °F 100% 30.14 in 10.0 mi ESE 9.2 mph - N/A   Scattered Clouds
9:55 AM 70.5 °F 70.5 °F 100% 30.14 in 10.0 mi SE 11.5 mph - N/A   Clear
10:55 AM 72.7 °F 72.7 °F 100% 30.13 in 10.0 mi SE 10.4 mph - N/A   Clear
11:55 AM 71.8 °F 71.8 °F 100% 30.10 in 10.0 mi SE 11.5 mph - N/A   Clear
12:55 PM 72.7 °F 72.7 °F 100% 30.09 in 10.0 mi SE 11.5 mph - N/A   Clear
1:55 PM 72.0 °F 72.0 °F 100% 30.07 in 10.0 mi SE 11.5 mph - N/A   Clear
2:55 PM 70.0 °F 70.0 °F 100% 30.06 in 10.0 mi SE 12.7 mph - N/A   Clear
3:03 PM 69.8 °F 69.8 °F 100% 30.06 in 10.0 mi SE 12.7 mph - N/A   Partly Cloudy
3:31 PM 69.8 °F 69.8 °F 100% 30.06 in 10.0 mi SE 10.4 mph - N/A   Mostly Cloudy
3:48 PM 69.8 °F 69.8 °F 100% 30.06 in 10.0 mi SE 9.2 mph - N/A   Mostly Cloudy
3:55 PM 69.6 °F 69.6 °F 100% 30.06 in 10.0 mi SE 11.5 mph - N/A   Overcast
4:09 PM 69.8 °F 69.8 °F 100% 30.06 in 10.0 mi SE 11.5 mph - N/A   Overcast
4:37 PM 68.0 °F 68.0 °F 100% 30.04 in 10.0 mi SE 10.4 mph - N/A   Mostly Cloudy
4:55 PM 68.5 °F 68.5 °F 100% 30.06 in 10.0 mi SE 6.9 mph - N/A   Overcast
4:57 PM 68.0 °F 68.0 °F 100% 30.06 in 10.0 mi SE 8.1 mph - N/A   Overcast
5:15 PM 68.0 °F 68.0 °F 100% 30.06 in 10.0 mi SE 5.8 mph - N/A   Overcast
5:25 PM 68.0 °F 68.0 °F 100% 30.06 in 10.0 mi SE 6.9 mph - N/A   Mostly Cloudy
5:30 PM 68.0 °F 68.0 °F 100% 30.06 in 10.0 mi SE 8.1 mph - N/A   Mostly Cloudy
5:33 PM 68.0 °F 68.0 °F 100% 30.06 in 10.0 mi SE 9.2 mph - N/A   Scattered Clouds
5:35 PM 68.0 °F 68.0 °F 100% 30.06 in 10.0 mi SE 8.1 mph - N/A   Mostly Cloudy
5:39 PM 68.0 °F 68.0 °F 100% 30.04 in 10.0 mi SE 8.1 mph - N/A   Mostly Cloudy
5:42 PM 68.0 °F 68.0 °F 100% 30.06 in 10.0 mi SE 6.9 mph - N/A   Mostly Cloudy
5:46 PM 68.0 °F 68.0 °F 100% 30.06 in 10.0 mi SE 6.9 mph - N/A   Mostly Cloudy
5:55 PM 68.2 °F 68.2 °F 100% 30.06 in 10.0 mi SE 8.1 mph - N/A   Mostly Cloudy
6:08 PM 68.0 °F 68.0 °F 100% 30.06 in 10.0 mi SE 5.8 mph - N/A   Mostly Cloudy
6:14 PM 68.0 °F 68.0 °F 100% 30.06 in 10.0 mi SE 6.9 mph - N/A   Mostly Cloudy
6:31 PM 68.0 °F 68.0 °F 100% 30.05 in 10.0 mi SE 6.9 mph - N/A   Scattered Clouds
6:37 PM 68.0 °F 68.0 °F 100% 30.05 in 10.0 mi SE 6.9 mph - N/A   Scattered Clouds
6:39 PM 68.0 °F 68.0 °F 100% 30.05 in 10.0 mi SE 8.1 mph - N/A   Mostly Cloudy
6:47 PM 68.0 °F 68.0 °F 100% 30.04 in 10.0 mi SE 9.2 mph - N/A   Scattered Clouds
6:55 PM 67.5 °F 67.5 °F 100% 30.04 in 9.0 mi SE 8.1 mph - N/A   Scattered Clouds
7:32 PM 68.0 °F 68.0 °F 100% 30.03 in 8.0 mi SE 9.2 mph - N/A   Mostly Cloudy
7:38 PM 68.0 °F 68.0 °F 100% 30.04 in 9.0 mi SE 9.2 mph - N/A   Mostly Cloudy
7:55 PM 67.8 °F 67.8 °F 100% 30.05 in 10.0 mi SSE 9.2 mph - N/A   Overcast
8:03 PM 68.0 °F 68.0 °F 100% 30.05 in 10.0 mi SSE 9.2 mph - N/A   Overcast
8:28 PM 68.0 °F 68.0 °F 100% 30.05 in 10.0 mi SSE 9.2 mph - N/A   Mostly Cloudy
8:39 PM 68.0 °F 68.0 °F 100% 30.06 in 10.0 mi SE 8.1 mph - N/A   Mostly Cloudy
8:55 PM 67.8 °F 67.8 °F 100% 30.05 in 8.0 mi SE 9.2 mph - N/A   Mostly Cloudy
9:10 PM 68.0 °F 68.0 °F 100% 30.04 in 8.0 mi SE 9.2 mph - N/A   Overcast
9:47 PM 68.0 °F 68.0 °F 100% 30.03 in 7.0 mi SE 10.4 mph - N/A   Overcast
9:55 PM 67.6 °F 67.6 °F 100% 30.02 in 7.0 mi SE 11.5 mph - N/A   Overcast
10:30 PM 68.0 °F 68.0 °F 100% 30.03 in 8.0 mi SE 10.4 mph - N/A   Overcast
10:55 PM 68.0 °F 68.0 °F 100% 30.03 in 8.0 mi SSE 10.4 mph - N/A   Overcast
11:10 PM 68.0 °F 68.0 °F 100% 30.03 in 7.0 mi SSE 11.5 mph - N/A   Mostly Cloudy
11:16 PM 68.0 °F 68.0 °F 100% 30.03 in 8.0 mi SE 11.5 mph - N/A   Mostly Cloudy
11:55 PM 68.0 °F 68.0 °F 100% 30.02 in 9.0 mi SE 10.4 mph - N/A   Mostly Cloudy
11:56 PM 68.0 °F 68.0 °F 100% 30.02 in 9.0 mi SE 11.5 mph - N/A   Scattered Clouds